User: anonymous   Login
Location: Drayton Valley
(53.2170°N, 114.9830°W)
Time: 20:41:54
(UTC-07:00)
Language:

Cosmos 1302 Rocket - Orbit

View from above orbital plane
View from above orbital plane
View from above satellite
View from above satellite

Ground track
Ground track

The orbit data is extracted from the following two-line orbital elements,

1 12792U 81084B   16042.09586375  .00000111  00000-0  45912-4 0  9996
2 12792  74.0279 221.2093 0014736 266.3925 231.2541 14.37389375804353
Epoch (UTC): 11 February 2016 02:18:02
Eccentricity: 0.0014736
inclination: 74.0279°
perigee height: 756 km
apogee height: 777 km
right ascension of ascending node: 221.2093°
argument of perigee: 266.3925°
revolutions per day: 14.37389375
mean anomaly at epoch: 231.2541°
orbit number at epoch: 80435

The dashed part of the orbit path shows where the satellite is in the earth's shadow,  

DLR